STARLINK-35841, 67086

Orbit data source: Space-Track

STARLINK-35841, 67086 is a payload satellite owned by SpaceX/Seattle (US) in LEO that was launched on Sun, 14 Dec 2025 UTC via an FALCON 9 launch vehicle from the Air Force Western Test Range (AFWTR). Payload-class satellites include a variety of spacecraft equipped with specific instruments for various scientific and technological missions. These include communications satellites like Starlink; space stations such as the ISS; scientific satellites like the Hubble; Earth observation satellites from companies like Planet Labs, Umbra, and HawkEye 360; GPS; miniature CubeSats for education and research; and military/defense satellites.

Loading next visibility...
Identifier
67086, 2025-298M
Orbit
LEO
Country
Flag of USUS
Related business
Manufacturer
SpaceX/Seattle
Mission
Operational Commercial Communications
Bus & Motor
STARLINK V2MO, Unknown motor
Mass
575 kg wet, ~530 kg dry
Launch date (UTC)
2025-12-14 (6 months ago)
Launch vehicle
FALCON 9
Launch site
Air Force Western Test Range (AFWTR)
Object type
Payload
Rocket body
Debris
Shape & HBR
Box + 2 Pan, 17.7 m
Radar Cross Section
36.964 m², Large (>1 m²)

Expand to show TLE details & history
Last TLE update: 15 hours ago

TLE from 15 hours ago
0 STARLINK-35841
1 67086U 25298M   26171.29158259 -.00000591  00000-0 -41685-4 0  9996
2 67086  70.0013 115.8595 0002963 246.9488 113.1359 14.98344475 28580
Epoch: 2026-06-20T06:59Z
TLE epoch observation values (Epoch: 2026-06-20T06:59:52.735Z)
Latitude
-0.00003°
Longitude
102.38145°
Altitude
575.245 km
Speed
7.573 km/s
True Right ascension
07h 43m 26s
True Declination
0° 00' 00"
Sunlit
Object was in daylight at epoch
Visualization orbit readout
Latitude
Unknown
Longitude
Unknown
Altitude
Unknown
Speed
Unknown
Apparent Right ascension
Unknown
Apparent Declination
Unknown
Sunlit
N/A
Visualization observer readout
Local Sidereal Time
08:42:48
Azimuth
Unknown
Elevation
Unknown
Doppler factor
Unknown
Orbital elements
Apogee altitude
572.018 km
Perigee altitude
567.9 km
Semi-major axis
6,948.096 km
Eccentricity
0.0003
Inclination
70.0013°
RAAN
115.8595°
Arg. of periapsis
246.9488°
True anomaly
113.16712°
Mean anomaly
113.1359°
Eccentric anomaly
113.15151°
Mean motion
3.74752 °/min
Orbital period
96.06 mins
BSTAR
-0.000041685
Loading maneuver chart data...
Computing Atmospheric mass density...
Loading historical data...
Loading historical data...
Loading historical data...
Loading historical data...
Loading historical data...
Loading historical data...
Loading historical data...

Documentation

Showing up to 5 results
|